Regional Weather Roundup
Issued by NWS

Home | Current Version | Previous Version | Graphics & Text | Print | Product List | Glossary On
Versions: 1 2 3 4 5 6 7 8 9 10 11 12 13 14 15 16 17 18 19 20 21 22 23 24 25 26 27 28 29 30 31 32 33 34 35 36 37 38 39 40 41 42 43 44 45 46 47 48 49 50
862
ASUS43 KMPX 290310
RWRMN
WEATHER ROUNDUP FOR MINNESOTA
NATIONAL WEATHER SERVICE TWIN CITIES/CHANHASSEN MN
1000 PM CDT THU JUL 28 2016


NOTE: "FAIR" INDICATES FEW OR NO CLOUDS BELOW 12,000 FEET WITH NO
SIGNIFICANT WEATHER AND/OR OBSTRUCTIONS TO VISIBILITY. N/A MEANS
CURRENT SKY AND/OR WEATHER CONDITIONS ARE NOT AVAILABLE.

MNZ060>063-068>070-290400-
   Twin Cities Metro

CITY           SKY/WX    TMP DP  RH WIND       PRES   REMARKS
TWIN CITIES    PTCLDY    70  57  63 NE6       30.03S
ST PAUL        CLEAR     70  57  63 NE8       30.03S
CRYSTAL        CLEAR     69  56  62 NE5       30.03R
BLAINE         CLEAR     68  61  77 NE5       30.04S
LAKEVILLE      CLOUDY    66  61  82 SE3       30.04R
EDEN PRAIRIE   CLEAR     71  58  63 N7        30.03R
LAKEVILLE      CLOUDY    66  61  82 SE3       30.04R
SOUTH ST PAUL  PTCLDY    70  56  61 N3        30.03R
LAKE ELMO      FAIR      68  59  73 NE6       30.05R
$$
MNZ001>005-007-008-013>017-022>024-027-028-290400-
   Northwest Minnesota

CITY           SKY/WX    TMP DP  RH WIND       PRES   REMARKS
BEMIDJI        CLEAR     61  55  82 CALM      30.09R
HALLOCK        CLEAR     64  57  77 NW5       30.08R
ROSEAU         CLEAR     61  55  82 E3        30.09S
WARROAD        CLEAR     61  57  88 CALM      30.10R
THIEF RVR FALL CLEAR     65  56  72 NE5       30.09R
CROOKSTON      CLEAR     61  57  88 W5        30.09R
FOSSTON        CLEAR     57  50  77 CALM      30.09S
DETROIT LAKES  CLEAR     68  59  73 NE5       30.10R
MOORHEAD       CLEAR     66  61  82 N6        30.08R
PARK RAPIDS    CLEAR     69  56  62 NE3       30.08S
MAHNOMEN       FAIR      62  58  86 CALM      30.09R
$$
MNZ006-009>011-018-025>026-290400-
   North Central Minnesota

CITY           SKY/WX    TMP DP  RH WIND       PRES   REMARKS
BAUDETTE       CLEAR     60  55  83 N3        30.09R
FLAG ISLAND    CLEAR     70  52  52 CALM      30.08S
INTL FALLS     CLEAR     57  55  93 CALM      30.08R
WASKISH        PTCLDY    63  57  82 CALM      30.08S
BIG FORK       MOCLDY    61  57  88 CALM      30.08S
LONGVILLE      CLEAR     59  57  94 SE5       30.08S
GRAND RAPIDS   MOCLDY    63  56  78 SE5       30.11R
CRANE LAKE     PTCLDY    55  55 100 CALM      30.10R
ORR            PTCLDY    61  54  77 CALM      30.07R
COOK           MOCLDY    64  55  72 S3        30.11R
WALKER         FAIR      59  57  92 CALM      30.08S
$$
MNZ012-019>021-037-290400-
   Northeast Minnesota

CITY           SKY/WX    TMP DP  RH WIND       PRES   REMARKS
DULUTH         PTCLDY    58  52  80 E5        30.10S
ELY            CLEAR     61  48  63 CALM      30.12R
HIBBING        CLEAR     56  53  90 CALM      30.11R
EVELETH        CLEAR     58  53  85 CALM      30.13R
DULUTH HARBOR  CLEAR     63  59  88 E13       30.10S
TWO HARBORS    CLEAR     61  54  77 N5        30.09S
SILVER BAY     CLEAR     55  52  88 CALM      30.10R
GRAND MARAIS     N/A     57  50  77 NW5       30.10S
G MARAIS ARPRT CLEAR     52  48  87 CALM      30.14S
$$
MNZ029>031-032-039>041-046>048-054>057-064-290400-
   West Central Minnesota

CITY           SKY/WX    TMP DP  RH WIND       PRES   REMARKS
FERGUS FALLS   MOCLDY    72  61  68 CALM      30.07R
WHEATON        PTCLDY    70  66  88 CALM      30.07R
MORRIS         CLOUDY    70  63  78 CALM      30.06S
ALEXANDRIA     CLEAR     66  57  72 S5        30.09R
ELBOW LAKE     FAIR      68  61  78 E5        30.07R
WADENA         CLEAR     63  57  82 CALM      30.08R
GLENWOOD       CLEAR     64  57  77 CALM      30.09R
APPLETON       MOCLDY    68  61  77 SE3       30.06S
BENSON         MOCLDY    64  57  77 CALM      30.07R
ORTONVILLE     CLOUDY    70  63  78 CALM      30.07R
MADISON        MOCLDY    68  61  77 CALM      30.07S
WILLMAR        FAIR      64  59  82 CALM      30.08R
$$
MNZ033>034-036-042>043-049>051-058-059-290400-
   Central Minnesota

CITY           SKY/WX    TMP DP  RH WIND       PRES   REMARKS
ST CLOUD       CLEAR     63  57  81 CALM      30.06R
SAUK CENTRE    FAIR      63  58  85 CALM      30.08R
PAYNESVILLE    CLEAR     60  59  97 CALM      30.08R
AITKIN         PTCLDY    59  54  82 CALM      30.08S
PINE RIVER     CLEAR     61  57  88 NE5       30.11R
BRAINERD       CLEAR     65  58  78 CALM      30.08R
STAPLES        CLEAR     64  55  72 CALM      30.07S
LONG PRAIRIE   FAIR      63  57  82 CALM      30.08R
LITTLE FALLS   CLEAR     59  55  88 CALM      30.07R
LITCHFIELD     CLEAR     66  59  77 CALM      30.07R
BUFFALO        CLEAR     66  57  73 N5        30.06R
MAPLE LAKE     CLEAR     65  58  77 N3        30.06R
HUTCHINSON     CLEAR     67  60  76 N3        30.07R
$$
MNZ037-044-045-052-053-290400-
   East Central Minnesota

CITY           SKY/WX    TMP DP  RH WIND       PRES   REMARKS
PRINCETON      CLEAR     66  57  72 NE5       30.06S
MORA           CLEAR     61  54  77 CALM      30.09R
CAMBRIDGE      CLEAR     66  55  68 CALM      30.05R
RUSH CITY      CLEAR     61  57  86 NE5       30.06S
MOOSE LAKE     PTCLDY    55  54  94 CALM      30.07S
HINCKLEY       FAIR      61  57  88 CALM      30.08S
CLOQUET        CLEAR     59  52  77 CALM      30.10S
MCGREGOR       CLEAR     61  54  77 CALM      30.09S
$$
MNZ071>073-080-081-089-090-097-098-290400-
   Southwest Minnesota

CITY           SKY/WX    TMP DP  RH WIND       PRES   REMARKS
MONTEVIDEO     PTCLDY    64  57  77 E3        30.09R
GRANITE FALLS  CLEAR     65  60  81 CALM      30.08R
CANBY          CLOUDY    66  59  77 CALM      30.09R
MARSHALL       CLEAR     64  58  80 N6        30.08R
REDWOOD FALLS  CLEAR     68  57  68 CALM      30.05R
OLIVIA         CLEAR     63  57  82 CALM      30.06R
PIPESTONE      CLOUDY    66  55  68 N1        30.08R
WINDOM         CLEAR     64  59  82 N3        30.05S
WORTHINGTON    MOCLDY    66  60  81 N6        30.07R
JACKSON        PTCLDY    64  59  82 N3        30.06R
TRACY          CLEAR     64  60  88 N6        30.07R
SLAYTON        PTCLDY    62  57  83 N3        30.07S
$$
MNZ065>067-074>077-082>085-091>093-290400-
   South Central Minnesota

CITY           SKY/WX    TMP DP  RH WIND       PRES   REMARKS
MANKATO        MOCLDY    70  57  64 NE7       30.04R
NEW ULM        CLEAR     66  57  72 CALM      30.05R
ST JAMES       CLEAR     61  55  82 N5        30.05R
FAIRMONT       PTCLDY    64  61  88 NE3       30.03R
GLENCOE        MOCLDY    67  62  81 CALM      30.04R
FARIBAULT      CLOUDY    66  63  88 CALM      30.04S
OWATONNA       CLOUDY    66  63  88 NE5       30.03F
WASECA         MOCLDY    64  61  88 E7        30.06R
ALBERT LEA     CLOUDY    64  63  94 N5        30.03R
$$
MNZ078>079-086>088-094>096-290400-
   Southeast Minnesota

CITY           SKY/WX    TMP DP  RH WIND       PRES   REMARKS
ROCHESTER      CLOUDY    65  59  81 NE14      30.03R
RED WING       CLOUDY    66  63  88 CALM      30.02S
STANTON        CLOUDY    68  64  88 CALM      30.02R
DODGE CENTER   CLOUDY   N/A N/A N/A NE8       30.04R
WINONA         CLOUDY    64  61  88 N6        30.02R
AUSTIN         CLOUDY    64  59  82 NE7G16    30.02R
PRESTON        CLOUDY    63  60  90 NE10      30.01S
$$
ABBREVIATIONS USED IN REMARKS
   TC - TEMPERATURES IN CELSIUS
  WCI - WIND CHILL INDEX
   HX - HEAT INDEX
  VSB - VISIBILITY
$$




USA.gov is the U.S. government's official web portal to all federal, state and local government web resources and services.